Wind_Speed
28 30 31 32 32 30 27 30 31 29 28 28 28 28 29 30 28 27 25 25 25 26 26 25 23 24 25 26 27 28 26 27 29 30 27 27 28 23 17 15 20 19 16
28 32 29 27 27 31 30 30 28 27 26 27 28 28 27 28 27 26 25 25 25 27 27 27 25 26 26 26 26 26 26 25 26 29 26 26 26 20 20 15 16 19 12
30 29 28 28 32 30 30 28 26 25 26 26 27 27 26 27 25 25 27 27 27 28 28 28 27 25 26 24 24 24 24 24 23 26 25 24 23 21 16 16 14 19 13
29 28 29 31 29 29 28 27 25 26 26 26 26 26 26 28 26 27 27 28 28 28 28 28 28 27 26 25 23 24 23 23 23 24 24 21 24 22 16 13 10 14 14
28 29 30 28 27 27 26 24 24 24 26 26 25 26 26 26 27 28 28 28 28 27 27 26 26 27 27 27 27 27 27 25 24 23 22 20 21 20 11 12 9 11 5
28 30 28 28 27 26 24 23 23 23 24 25 25 27 26 24 26 27 29 30 28 27 27 26 26 29 31 29 27 28 29 30 30 26 25 21 19 21 12 11 11 10 9
30 28 27 25 25 24 23 23 23 23 23 26 28 30 28 28 27 27 28 28 28 27 29 31 31 33 35 36 35 31 29 29 30 28 28 23 22 21 15 12 10 11 9
25 26 23 23 23 23 22 22 23 23 25 27 28 29 30 29 24 24 26 28 29 31 34 35 36 35 35 37 38 35 31 27 28 31 28 22 21 20 14 12 10 8 13
26 22 22 24 22 21 21 20 21 23 25 27 28 28 30 30 32 32 32 33 36 35 34 34 33 33 32 30 30 27 25 23 22 25 22 21 18 19 12 11 11 8 7
23 23 22 21 20 20 19 19 20 23 25 26 27 30 33 36 37 36 37 37 36 34 32 29 28 28 28 28 28 27 26 23 18 17 18 18 16 9 9 6 9 8 10
18 19 20 20 20 20 20 21 22 23 24 27 31 32 30 37 37 34 35 35 36 35 31 28 27 26 26 25 25 24 22 21 17 15 12 13 13 11 9 5 6 5 5
18 19 19 19 19 18 19 21 22 24 25 27 28 26 27 35 34 32 28 31 32 32 30 28 28 26 25 24 22 21 19 18 15 12 10 11 10 10 11 10 4 4 7
17 18 18 18 18 18 19 21 21 22 25 28 28 30 29 28 28 25 25 27 28 29 29 28 26 25 24 24 23 22 20 18 16 12 8 6 7 8 7 6 6 7 6
16 16 18 18 19 20 19 19 21 23 26 27 29 32 31 28 27 24 23 24 28 30 29 28 27 26 25 23 22 22 20 17 14 12 7 5 6 6 5 5 5 8 7
16 16 17 18 19 19 20 22 23 25 26 27 29 30 31 27 27 24 23 26 29 31 31 28 27 26 24 22 22 21 20 18 15 11 7 3 4 5 5 5 5 6 12
16 16 18 18 18 19 21 23 25 26 28 30 29 28 27 28 26 20 20 23 27 30 32 29 27 29 26 24 24 22 18 16 15 11 6 3 3 5 6 5 5 5 10
15 16 17 17 17 18 20 23 25 25 29 31 30 29 28 26 25 19 19 22 26 30 31 31 28 29 28 24 22 22 22 18 15 11 6 2 4 5 6 5 5 4 6
16 16 15 15 17 18 21 24 22 26 28 30 32 33 32 27 24 18 17 18 24 27 30 29 26 29 26 23 22 21 19 18 16 11 6 3 3 4 5 4 2 2 2
15 15 15 16 19 20 23 22 23 27 28 30 31 30 27 24 20 16 18 20 26 27 30 29 28 29 26 24 23 21 19 18 16 13 9 5 3 4 4 5 5 3 2
14 12 14 17 18 21 22 23 23 26 28 30 32 30 25 19 15 16 17 19 24 28 32 31 25 28 24 23 24 24 24 21 17 14 10 7 5 4 4 6 6 6 5
12 15 17 18 19 20 23 23 24 27 29 30 31 28 25 20 17 17 16 19 23 27 29 34 29 30 29 26 27 27 24 20 17 15 10 7 6 3 5 8 7 7 6
12 13 15 18 20 21 23 24 25 26 28 29 29 26 24 22 19 18 15 19 23 29 29 32 30 32 30 27 27 26 23 20 16 14 12 12 10 8 9 9 8 7 9
11 13 14 17 20 21 19 25 25 26 27 29 28 26 24 24 22 19 17 19 24 29 31 28 30 30 28 32 31 29 24 20 17 14 10 9 11 12 11 13 12 9 10
11 13 16 18 20 20 20 25 25 26 28 29 28 26 26 24 21 17 18 22 24 28 26 29 30 32 32 34 33 28 26 22 18 12 8 9 10 11 15 13 13 15 15
12 14 16 17 18 19 19 24 23 24 28 29 29 26 26 22 17 16 19 23 26 26 24 31 33 34 34 35 29 27 25 25 22 18 15 5 5 10 11 14 14 16 16
13 14 16 17 18 19 21 23 21 24 28 29 28 27 25 22 18 19 20 24 26 27 29 31 32 34 35 30 25 23 22 26 24 24 20 15 8 8 13 15 16 17 18
Wind_Direction
314 315 315 314 314 318 322 321 317 319 321 322 321 325 326 319 319 319 321 316 320 316 312 311 314 315 314 314 315 311 308 303 302 308 312 318 317 328 320 314 329 337 340
315 317 315 318 315 321 323 322 319 321 322 325 326 325 324 318 319 323 321 322 320 316 314 313 315 316 315 313 313 311 311 311 304 307 309 310 313 323 324 314 315 332 338
315 318 316 315 315 318 321 321 321 323 326 326 326 325 324 319 327 326 325 323 320 316 314 314 313 313 311 313 313 317 317 316 310 305 303 307 310 311 315 311 318 323 313
314 317 318 318 318 319 321 320 324 326 326 330 329 327 329 324 335 329 327 324 321 318 316 312 312 314 313 314 316 315 315 315 312 309 307 303 306 310 310 308 294 302 319
312 316 320 320 319 320 321 320 324 328 330 329 331 331 334 328 331 325 327 325 323 321 319 317 315 313 312 312 314 312 311 309 307 306 308 309 305 310 296 296 295 304 334
312 318 315 316 318 321 323 324 327 332 331 331 335 335 330 332 329 329 330 327 325 326 321 317 313 309 308 308 305 303 304 306 305 306 302 302 304 301 312 289 280 286 302
317 315 317 316 320 323 327 328 329 331 334 335 336 335 332 335 336 332 330 324 326 327 321 316 312 307 305 304 303 298 295 293 293 289 290 296 300 302 308 288 269 256 268
314 315 313 318 321 324 327 330 331 333 335 338 336 336 338 341 339 336 332 327 328 326 321 315 310 309 307 305 305 304 301 291 282 282 288 291 295 298 299 280 260 253 253
314 314 316 318 322 326 328 331 332 334 335 337 338 337 337 340 344 344 336 335 332 331 326 322 319 318 318 319 314 315 310 301 287 281 280 279 283 283 308 284 267 235 243
316 316 319 321 323 325 328 328 332 335 338 337 334 341 342 341 340 340 337 337 335 337 333 331 329 328 330 329 326 326 323 319 306 287 274 272 272 281 296 292 279 234 234
318 322 323 327 328 329 331 332 333 334 337 341 344 344 332 332 334 337 336 337 341 346 345 345 343 342 340 336 333 333 328 323 313 302 276 259 252 245 258 263 268 234 235
323 323 326 328 329 330 330 328 332 336 345 343 338 331 324 327 329 331 332 341 347 348 350 350 349 347 346 344 344 343 340 335 331 315 287 261 247 246 244 251 229 231 225
326 329 330 331 329 328 328 330 336 340 339 339 338 338 335 327 327 330 335 342 350 352 354 353 348 346 349 350 352 352 350 348 342 333 312 271 247 250 249 234 206 199 215
328 330 332 332 328 326 325 332 337 338 342 344 343 338 334 330 330 333 337 345 352 356 354 354 353 351 349 349 353 359 358 358 353 344 327 282 245 234 222 211 206 199 184
326 331 332 332 330 328 336 337 335 341 344 347 346 337 329 331 333 335 343 348 354 354 353 353 352 355 354 353 354 356 357 359 354 347 335 295 236 230 216 206 195 186 180
328 332 330 332 332 337 341 336 340 341 341 345 343 334 326 332 333 332 340 347 356 349 357 352 356 360 357 3 7 4 358 356 357 350 337 294 247 223 221 222 213 219 201
331 331 330 333 339 345 337 335 345 338 334 338 339 333 333 336 331 335 338 342 352 349 349 351 351 354 357 2 2 6 10 6 359 356 343 282 241 227 234 232 242 229 217
333 333 334 339 340 340 342 344 340 328 336 339 339 336 336 336 333 342 343 351 358 351 351 349 352 353 355 357 1 1 0 2 2 354 339 297 242 235 222 215 210 191 198
334 335 339 341 337 347 341 339 334 334 342 339 336 336 334 335 333 343 341 351 353 349 350 348 345 344 344 343 347 346 345 344 342 342 342 322 264 223 216 203 185 140 120
339 337 338 340 349 339 338 338 329 342 340 339 340 341 344 338 337 338 349 352 352 351 349 349 340 331 331 332 330 331 329 323 323 330 318 316 302 240 212 186 180 172 147
335 348 347 347 341 339 340 335 341 343 341 342 344 345 346 345 339 343 350 350 353 350 342 347 351 348 346 341 334 330 327 321 307 303 297 301 273 237 218 189 182 174 173
340 348 344 340 340 344 337 336 345 344 342 344 348 347 349 344 335 340 341 346 347 344 347 345 347 346 349 352 350 345 341 336 321 304 284 269 259 235 219 214 192 186 182
349 343 342 339 341 343 338 335 347 345 347 350 349 348 346 342 339 343 342 345 344 349 342 348 347 350 352 349 346 345 344 339 325 311 295 268 243 230 216 213 206 202 188
344 348 344 343 340 341 336 339 348 347 352 353 350 347 345 343 345 355 358 351 347 345 351 350 349 349 350 348 351 355 355 360 356 339 297 251 232 220 212 208 206 198 189
353 345 344 342 342 343 342 341 344 350 356 354 351 349 348 348 352 348 350 347 350 349 354 352 352 354 355 355 0 13 22 18 21 28 25 27 213 201 190 188 182 184 186
349 347 343 340 345 348 343 341 346 354 356 354 352 351 351 353 347 342 343 346 350 352 354 352 351 355 357 2 20 32 30 30 39 38 43 49 69 142 165 164 163 160 161
Height
3142 3139 3136 3131 3126 3122 3117 3113 3108 3104 3100 3095 3091 3085 3081 3077 3072 3067 3063 3059 3053 3050 3047 3041 3036 3032 3029 3026 3021 3017 3013 3008 3002 2999 2998 2995 2991 2989 2986 2982 2979 2975 2969
3138 3135 3131 3126 3122 3117 3113 3109 3104 3100 3095 3090 3086 3081 3077 3074 3068 3064 3059 3054 3049 3045 3041 3037 3030 3026 3024 3020 3015 3012 3007 3002 2997 2994 2992 2990 2987 2984 2981 2979 2976 2973 2969
3133 3130 3126 3122 3118 3113 3109 3105 3100 3096 3091 3087 3083 3079 3074 3070 3065 3059 3054 3049 3045 3040 3036 3031 3026 3021 3018 3015 3010 3006 3001 2997 2993 2989 2986 2985 2981 2979 2978 2976 2973 2971 2967
3130 3126 3122 3118 3113 3109 3105 3101 3096 3092 3088 3084 3079 3075 3071 3065 3060 3055 3050 3045 3040 3036 3030 3025 3020 3016 3013 3009 3005 3001 2996 2992 2989 2985 2982 2979 2976 2974 2973 2972 2971 2968 2965
3125 3121 3118 3114 3110 3105 3101 3097 3093 3088 3085 3081 3076 3072 3067 3062 3055 3050 3045 3040 3035 3030 3025 3021 3016 3011 3008 3003 2999 2995 2990 2987 2983 2980 2977 2974 2971 2968 2968 2967 2967 2966 2962
3121 3117 3114 3110 3106 3102 3098 3094 3089 3085 3081 3077 3072 3067 3064 3058 3052 3046 3039 3035 3030 3025 3021 3016 3011 3006 3001 2998 2994 2989 2984 2979 2976 2974 2971 2968 2966 2963 2963 2963 2963 2963 2962
3116 3113 3110 3106 3102 3098 3094 3090 3086 3082 3078 3074 3069 3063 3060 3052 3047 3041 3036 3031 3026 3021 3015 3010 3004 2999 2993 2988 2985 2983 2979 2975 2970 2966 2964 2963 2961 2959 2959 2959 2959 2959 2959
3113 3109 3106 3103 3098 3095 3091 3086 3083 3079 3074 3070 3065 3060 3054 3049 3045 3039 3034 3028 3021 3015 3008 3002 2994 2989 2984 2978 2973 2970 2968 2966 2962 2959 2958 2957 2956 2954 2954 2953 2954 2955 2956
3109 3106 3103 3099 3095 3091 3088 3084 3080 3076 3072 3067 3062 3057 3050 3044 3040 3035 3029 3023 3014 3007 3001 2993 2986 2980 2975 2970 2965 2961 2957 2955 2953 2951 2950 2950 2950 2949 2949 2948 2948 2951 2951
3106 3102 3099 3096 3092 3088 3085 3082 3077 3073 3069 3064 3060 3053 3046 3040 3035 3031 3025 3017 3010 3002 2995 2988 2982 2975 2970 2964 2959 2954 2950 2947 2945 2944 2943 2944 2945 2946 2945 2945 2945 2945 2947
3102 3099 3096 3093 3089 3086 3083 3079 3075 3071 3066 3061 3055 3049 3042 3037 3034 3028 3021 3013 3005 2996 2990 2984 2978 2972 2966 2961 2956 2950 2945 2941 2939 2936 2937 2938 2939 2941 2942 2941 2941 2942 2944
3099 3096 3093 3090 3086 3083 3080 3077 3073 3068 3062 3059 3054 3050 3043 3036 3031 3025 3019 3012 3004 2995 2988 2982 2976 2970 2964 2959 2953 2948 2943 2939 2935 2933 2932 2933 2934 2936 2937 2937 2939 2939 2942
3097 3094 3091 3087 3084 3080 3077 3074 3070 3066 3061 3055 3050 3044 3041 3035 3030 3023 3017 3011 3004 2995 2988 2981 2976 2970 2963 2957 2951 2946 2942 2938 2935 2932 2931 2931 2932 2933 2934 2934 2936 2937 2939
3094 3091 3088 3085 3082 3079 3075 3071 3067 3062 3057 3051 3045 3040 3037 3032 3025 3019 3013 3008 3001 2994 2988 2981 2974 2968 2962 2956 2950 2945 2940 2936 2933 2931 2929 2929 2930 2931 2932 2933 2934 2935 2938
3092 3089 3086 3083 3080 3076 3072 3068 3065 3059 3054 3048 3043 3038 3034 3028 3022 3015 3009 3004 2998 2992 2986 2980 2974 2968 2962 2956 2949 2944 2939 2935 2932 2930 2929 2928 2929 2930 2931 2932 2933 2934 2936
3090 3086 3084 3080 3077 3074 3070 3066 3061 3055 3050 3044 3041 3037 3032 3023 3018 3013 3008 3003 2998 2991 2985 2979 2973 2967 2960 2955 2949 2944 2939 2935 2932 2930 2928 2928 2928 2929 2930 2931 2931 2932 2934
3087 3084 3081 3078 3074 3071 3068 3064 3058 3052 3047 3042 3038 3034 3028 3021 3016 3010 3006 3002 2997 2991 2985 2979 2973 2966 2961 2955 2950 2945 2940 2936 2933 2930 2928 2927 2927 2928 2929 2929 2929 2930 2931
3085 3082 3079 3076 3073 3069 3066 3061 3057 3052 3046 3040 3034 3028 3022 3017 3012 3008 3005 3001 2997 2991 2984 2978 2972 2966 2960 2955 2950 2945 2941 2937 2933 2930 2928 2926 2926 2927 2927 2928 2928 2929 2929
3083 3080 3078 3075 3071 3067 3064 3060 3055 3049 3045 3040 3033 3028 3020 3013 3009 3006 3003 2999 2995 2989 2983 2977 2971 2966 2960 2954 2949 2944 2940 2936 2933 2930 2927 2926 2925 2925 2925 2926 2928 2928 2929
3081 3079 3077 3073 3069 3066 3063 3059 3053 3048 3043 3037 3030 3024 3017 3012 3009 3005 3002 2999 2994 2988 2982 2975 2968 2962 2956 2951 2945 2941 2937 2933 2930 2928 2926 2924 2923 2923 2924 2925 2926 2928 2929
3080 3077 3075 3072 3069 3065 3061 3056 3051 3046 3041 3035 3028 3021 3015 3011 3007 3004 3001 2998 2993 2987 2980 2974 2966 2960 2953 2947 2942 2937 2931 2927 2925 2923 2922 2921 2921 2921 2922 2923 2925 2927 2929
3079 3077 3074 3072 3068 3064 3059 3054 3049 3044 3039 3033 3027 3021 3015 3011 3006 3003 2999 2996 2992 2986 2979 2971 2964 2957 2951 2944 2939 2933 2927 2922 2918 2915 2915 2915 2916 2917 2919 2921 2923 2925 2928
3078 3076 3073 3070 3066 3063 3058 3052 3048 3043 3038 3032 3026 3020 3015 3011 3005 3002 2998 2995 2991 2985 2977 2969 2963 2956 2950 2944 2936 2929 2923 2917 2913 2910 2908 2908 2910 2912 2915 2917 2920 2923 2926
3078 3075 3072 3069 3065 3061 3057 3051 3047 3042 3037 3031 3025 3020 3014 3009 3005 3002 2999 2995 2990 2983 2975 2968 2962 2955 2948 2939 2933 2926 2919 2913 2907 2903 2901 2901 2903 2905 2909 2913 2916 2920 2924
3076 3075 3071 3068 3064 3060 3055 3050 3047 3042 3037 3031 3025 3020 3014 3009 3006 3002 2999 2994 2989 2982 2975 2968 2961 2954 2946 2938 2931 2925 2920 2914 2908 2903 2899 2897 2898 2901 2905 2909 2913 2917 2922
3076 3074 3071 3067 3063 3059 3055 3050 3046 3041 3037 3031 3025 3019 3014 3010 3007 3003 2999 2994 2988 2981 2975 2968 2960 2954 2945 2938 2932 2928 2924 2918 2913 2908 2903 2900 2899 2900 2904 2909 2913 2918 2922